Tracking 25710 objects as of 5-Jul-2022
HD Live streaming from Space Station
objects crossing your sky now

FENGYUN 1C DEB

Track FENGYUN 1C DEB now!
10-day predictions


NORAD ID: 37903
Int'l Code: 1999-025ENC
Perigee: 690.0 km
Apogee: 1,171.3 km
Inclination: 98.2 °
Period: 103.5 minutes
Semi major axis: 7301 km
RCS: 0.0009 m2 (small)
Launch date: May 10, 1999
Source: People's Republic of China (PRC)
Launch site: Taiyaun Space Center, China (TSC)

Note: This is SATELLITE DEBRIS
aabbcc
Your satellite tracking list
Your tracking list is empty




NASA's NSSDC Master Catalog

Two Line Element Set (TLE):
1 37903U 99025ENC 22185.32356293  .00002923  00000-0  15047-2 0  9993
2 37903  98.1723 200.2017 0329592 281.2397  75.1895 13.91454769387808
Source of the keplerian elements: AFSPC